Regional Weather Roundup
Issued by NWS Upton, NY

Current Version | Previous Version | Text Only | Print | Product List | Glossary On
Versions: 1 2 3 4 5 6 7 8 9 10 11 12 13 14 15 16 17 18 19 20 21 22 23 24 25 26 27 28 29 30 31 32 33 34 35 36 37 38 39 40 41 42 43 44 45 46 47 48 49 50
000
ASUS41 KOKX 301304
RWROKX

REGIONAL WEATHER ROUNDUP
NATIONAL WEATHER SERVICE NEW YORK NY
900 AM EDT SUN AUG 30 2015

NOTE: "FAIR" INDICATES FEW OR NO CLOUDS BELOW 12,000 FEET WITH NO
SIGNIFICANT WEATHER AND/OR OBSTRUCTIONS TO VISIBILITY.

NYZ071-072-176-178-NJZ106-104-301400-
NEW YORK CITY METRO AREA


CITY           SKY/WX    TMP DP  RH WIND       PRES   REMARKS
CENTRAL PARK   SUNNY     75  62  64 W5        30.13S
LAGUARDIA APRT MOSUNNY   76  63  64 CALM      30.10S
KENNEDY INTL   MOSUNNY   76  64  66 SW9       30.11F
NEWARK/LIBERTY MOSUNNY   75  64  68 W9        30.10F
BRNX BOT. GARD   N/A     73  63  68 S1        30.11F
TETERBORO      SUNNY     74  62  66 CALM      30.09F
$$

NYZ177-179-078>081-301400-
LONG ISLAND NEW YORK

CITY           SKY/WX    TMP DP  RH WIND       PRES   REMARKS
FARMINGDALE    SUNNY     76  65  68 W7        30.11S
ISLIP          MOSUNNY   76  65  68 SW5       30.09S
SHIRLEY        SUNNY     77  65  66 W6        30.11S
WESTHAMPTON    SUNNY     78  65  63 W8        30.12S
MONTAUK POINT    N/A     76  67  73 W7        30.11S
$$

NYZ052-065-067-301400-
HUDSON VALLEY

CITY           SKY/WX    TMP DP  RH WIND       PRES   REMARKS
WHITE PLAINS   SUNNY     73  64  73 W5        30.11S
NEWBURGH       MOSUNNY   70  66  88 VRB6      30.12S
MONTGOMERY     CLOUDY    70  65  84 S6        30.11S
POUGHKEEPSIE   CLOUDY    73  64  73 SW3       30.09F
ALBANY         PTSUNNY   68  61  78 S5        30.10R
$$

NJZ001-105-106-008-010-013-015-019>022-104-301400-
NEW JERSEY

CITY           SKY/WX    TMP DP  RH WIND       PRES   REMARKS
NEWARK/LIBERTY MOSUNNY   75  64  68 W9        30.10F
TETERBORO      SUNNY     74  62  66 CALM      30.09F
CALDWELL       MOSUNNY   71  62  73 W5        30.11S
MORRISTOWN     MOSUNNY   73  68  83 CALM      30.12S
SOMERVILLE     SUNNY     71  63  75 CALM      30.10S
SUSSEX         MOSUNNY   65  62  90 SW3       30.12S
ANDOVER          N/A     69  65  86 CALM      30.13R
TRENTON        SUNNY     73  65  75 SW6       30.11F
MILLVILLE      SUNNY     75  67  76 SW5       30.14R
ATLANTIC CITY  SUNNY     77  63  61 SW7       30.13S
WRIGHTSTOWN    SUNNY     74  66  75 W9        30.10S
TOMS RIVER     SUNNY     75  64  69 W9        30.13S
BELMAR         SUNNY     73  63  68 W7        30.12S
$$

PAZ047>061-062-071-301400-
EASTERN PENNSYLVANIA

CITY           SKY/WX    TMP DP  RH WIND       PRES   REMARKS
PHILADELPHIA   MOSUNNY   75  65  70 SW8       30.13S
ALLENTOWN      SUNNY     71  64  78 CALM      30.12S
SCRANTON       MOSUNNY   72  62  71 NW3       30.13R
$$

CTZ002-004>006-009-010-012-RIZ004-006-007-MAZ004-011-015-301400-
SOUTHERN NEW ENGLAND
 IN CT

CITY           SKY/WX    TMP DP  RH WIND       PRES   REMARKS
BRADLEY INTL   MOSUNNY   71  62  73 W5        30.09S
HARTFORD       SUNNY     72  65  78 S3        30.09S
DANBURY        SUNNY     72  63  73 SW5       30.12S
WTRBRY/OXFORD  MOSUNNY   66  57  72 W3        30.13S
BRIDGEPORT     SUNNY     76  64  66 SW7       30.10S
MERIDEN        SUNNY     73  63  70 VRB5      30.10S
NEW HAVEN      SUNNY     73  63  70 VRB3      30.10F
CHESTER        NOT AVBL
GROTON         SUNNY     76  68  76 VRB5      30.09F
WILLIMANTIC    SUNNY     68  61  78 CALM      30.10F

 IN RI

CITY           SKY/WX    TMP DP  RH WIND       PRES   REMARKS
PROVIDENCE     SUNNY     75  64  68 W8        30.09S
BLOCK ISLAND   SUNNY     75  70  83 W10       30.11S
WESTERLY       SUNNY     75  67  76 SW6       30.10F

 IN MA

CITY           SKY/WX    TMP DP  RH WIND       PRES   REMARKS
BOSTON         MOSUNNY   73  64  73 SW8       30.07S
WORCESTER      SUNNY     70  61  73 W7        30.11S
WESTFIELD      SUNNY     68  61  78 CALM      30.10R
PROVINCETOWN   MOSUNNY   73  61  64 SW9       30.09R
NANTUCKET      SUNNY     75  68  78 SW10      30.11R
$$

ANZ330-335-338-340-345-350-353-355-301400-
COASTAL MARINE OBSERVATIONS


STATION/POSITION TIME  SKY/WX   TEMP    WIND        PRES    VSBY  WAVE
                                AIR SEA DIR/SP/G                  HT/PER
                 (UTC)          (F)     (DEG/KT/KT) (MB)    (MI)  (FT/S)
NY HARB ENTRANCE 1150            73 75  260/  8/ 10 1019.3          3/11
4S FIRE IS       NOT AVBL
20S FIRE ISLAND  1150            74 74  260/ 10/ 12 1019.4          3/11
GREAT SOUTH BAY  1200            73 77  250/ 10/ 12   N/A
23SW MTP         1250            73 72  270/ 14/ 16 1018.9          3/10
HUDSON CANYON    NOT AVBL
KINGS POINT      NOT AVBL
EXECUTION ROCKS  1200            77     240/  8/ 10   N/A
CENTRAL LI SOUND NOT AVBL
EASTERN LI SOUND 1200            73 71  250/ 10/ 12   N/A
ROBBINS REEF     NOT AVBL
$$


>>>>>>>>>>>>>>>>>>>>>>>>>>>> KEY <<<<<<<<<<<<<<<<<<<<<<<<<<<
>                                                          <
>     SKY/WX - SKY CONDITION/PRESENT WEATHER               <
>     TMP    - TEMPERATURE IN FAHRENHEIT                   <
>     DP     - DEWPOINT IN FAHRENHEIT                      <
>     RH     - RELATIVE HUMIDITY IN PERCENT                <
>     WIND   - DIRECTION AND SPEED IN MPH                  <
>     PRES   - MEAN SEA LEVEL PRESSURE IN INCHES OF HG     <
>     WCI    - WIND CHILL INDEX                            <
>     VSB    - VISIBILITY IN MILES                         <
>     HX     - HEAT INDEX                                  <
>     TC     - TEMPERATURE IN CELSIUS                      <
>     VRB    - VARIABLE WIND DIRECTION                     <
>                                                          <
>>>>>>>>>>>>>>>>>>>>>>>>>>>> KEY <<<<<<<<<<<<<<<<<<<<<<<<<<<





USA.gov is the U.S. government's official web portal to all federal, state and local government web resources and services.